Theta_e
309 309 309 310 312 313 314 318 320 320 320 318 318 319 319 319 320 318 317 316 314 315 316 316 317 317 317 318 318 317 317 315 313 309 306 304 303 302 302 301 301 301
309 309 309 310 311 312 314 316 318 318 317 317 317 318 319 320 319 317 316 315 314 315 317 317 318 318 317 317 318 316 315 312 307 304 302 303 302 302 302 301 300 300
310 309 309 309 309 311 313 316 318 317 315 316 318 319 320 320 319 317 316 315 314 315 316 317 318 318 318 317 317 315 312 307 302 300 301 301 302 302 302 301 300 299
310 310 309 309 309 309 311 314 316 315 314 317 319 319 319 318 318 317 315 315 315 315 315 316 317 317 317 317 315 312 307 302 299 299 300 301 301 301 302 301 298 296
310 310 309 309 310 310 310 311 312 313 315 317 318 318 317 318 317 316 315 315 315 314 315 316 316 316 316 315 314 309 302 298 297 298 299 300 300 300 301 300 296 293
310 310 309 310 310 309 310 311 310 312 316 317 317 317 316 317 317 315 315 316 315 314 314 315 315 315 315 314 311 304 298 297 296 297 298 299 299 300 300 297 294 292
310 310 309 310 309 309 310 310 310 312 315 316 316 315 316 316 316 315 315 316 315 315 314 315 315 315 314 313 307 300 296 296 295 296 296 297 298 298 297 294 292 292
310 310 309 310 309 309 309 310 311 312 314 315 314 315 316 315 314 314 314 315 315 315 315 315 315 314 314 312 305 298 296 295 295 295 295 296 296 295 294 292 292 292
310 310 309 309 309 309 309 310 311 313 313 313 314 315 315 314 313 313 313 314 315 315 314 313 314 313 313 311 305 297 295 295 294 294 294 294 294 293 292 292 292 292
310 310 309 309 309 310 310 310 311 313 313 313 314 315 315 313 313 312 312 313 314 314 313 312 313 312 312 311 304 297 295 294 294 294 293 293 293 292 292 292 292 291
311 310 309 309 309 310 310 310 310 312 313 313 314 315 314 313 312 312 312 313 313 313 312 312 313 312 311 310 303 296 294 294 293 293 293 292 292 292 292 292 291 290
311 310 309 309 309 310 310 310 310 311 313 313 314 314 313 313 312 312 312 313 312 312 312 311 311 310 310 308 301 295 294 294 293 293 292 292 292 292 292 291 291 290
311 310 309 309 308 309 310 310 309 310 313 314 314 313 312 312 312 312 312 312 311 311 311 311 310 308 307 304 298 294 294 293 293 292 292 292 292 291 291 291 290 290
311 310 309 309 308 308 309 309 309 310 312 314 312 311 311 312 311 310 311 311 311 310 310 310 309 306 305 301 295 293 293 293 292 292 292 292 292 291 291 290 290 290
312 311 309 309 308 307 307 308 308 310 312 313 312 312 311 311 310 309 310 310 310 310 310 310 308 305 302 298 294 293 293 292 292 292 292 292 292 291 291 290 290 290
312 311 310 308 308 307 307 307 307 309 310 311 312 312 312 311 310 309 309 310 310 309 308 308 307 303 300 296 293 293 293 292 292 292 291 292 292 291 291 290 289 289
311 311 309 308 308 307 307 306 307 308 309 311 311 311 311 311 310 309 309 309 309 308 308 307 306 303 299 295 293 293 292 292 292 292 291 291 291 291 291 290 289 289
311 310 309 308 307 307 307 306 306 307 309 310 310 310 310 310 309 309 309 309 309 308 307 306 305 302 298 293 292 292 292 292 292 291 291 291 290 290 290 289 289 290
311 309 309 308 307 306 306 306 306 307 308 309 309 310 310 309 309 309 308 308 308 308 308 306 304 301 296 293 291 291 291 291 291 291 290 290 290 290 289 289 290 291
310 309 308 307 306 306 306 306 306 307 308 308 308 308 308 308 308 308 307 307 307 307 307 306 304 301 296 292 291 291 291 291 291 291 291 290 289 289 289 289 290 291
309 308 307 307 306 305 305 305 305 306 306 307 307 307 307 307 307 307 306 306 305 305 305 304 305 302 296 291 290 290 290 290 290 290 290 289 288 288 288 288 289 291
309 307 306 306 305 305 305 305 305 305 305 305 306 306 305 305 305 305 305 305 304 304 303 303 303 301 295 290 289 290 289 289 290 289 289 288 288 288 288 288 289 290
308 306 305 305 304 304 304 304 304 304 305 305 305 305 305 304 305 305 304 304 303 302 302 301 301 299 294 290 289 289 289 289 289 288 288 288 288 288 288 288 288 289
307 305 304 304 303 303 303 302 303 303 303 304 304 304 304 304 304 304 303 302 301 300 299 299 298 297 294 290 288 289 289 289 288 288 287 287 287 287 287 287 288 290
305 304 303 303 302 302 301 301 301 302 302 302 302 302 302 302 302 301 300 299 299 298 297 296 295 294 291 289 288 289 289 288 288 287 287 286 286 287 287 288 290 291
304 303 302 302 301 300 300 300 300 300 301 301 301 301 300 300 299 298 297 297 296 296 295 293 292 291 290 289 289 289 288 288 288 287 287 286 286 287 289 290 291 291
Wind_Speed
31 33 34 34 34 33 31 31 32 33 32 32 32 32 32 32 30 27 26 25 26 31 35 35 35 35 35 36 36 34 32 32 32 33 32 32 32 32 31 29 28 28
32 34 34 34 35 34 33 33 33 33 32 31 30 30 32 33 30 27 26 25 26 30 35 36 36 36 36 37 35 32 32 32 33 34 33 33 33 33 31 29 27 27
31 33 34 34 34 34 34 34 35 34 33 32 30 30 32 31 29 27 26 25 26 29 33 35 35 36 36 35 33 32 33 33 33 33 33 33 33 33 32 29 27 27
30 32 33 33 33 33 33 35 37 36 34 33 32 30 30 29 29 28 26 26 28 30 33 34 34 36 37 35 33 34 35 34 33 33 34 34 33 33 32 30 27 26
28 30 32 32 33 33 33 35 37 36 35 34 32 30 30 29 29 28 27 27 28 29 31 33 34 36 35 34 34 35 35 34 34 34 34 34 34 32 31 29 27 25
26 28 30 31 32 33 33 34 36 36 35 35 33 31 30 29 28 28 29 30 28 28 29 30 33 35 34 34 35 35 35 34 34 34 34 34 33 32 30 29 26 25
25 27 29 31 31 32 32 33 33 35 35 35 32 31 30 29 28 28 30 31 30 30 30 30 31 32 32 34 36 36 35 34 33 33 33 33 33 31 30 28 26 25
24 26 28 30 31 31 32 32 32 34 35 34 31 30 30 29 28 28 29 30 33 32 31 31 32 31 32 34 37 36 35 33 33 33 32 32 32 31 28 27 26 25
24 26 27 30 31 31 32 32 31 31 32 32 30 30 31 28 26 28 29 31 34 34 31 31 32 31 31 34 37 37 34 33 32 32 32 31 30 29 27 26 25 24
24 25 27 31 33 33 32 31 31 30 30 30 30 31 31 28 26 28 29 32 36 36 33 31 32 32 32 34 36 36 34 32 32 31 31 30 29 27 26 25 24 23
25 25 27 30 33 34 32 30 30 31 31 31 31 31 30 27 27 28 29 32 34 35 34 32 32 32 32 34 36 35 33 31 31 31 30 29 28 26 25 24 23 22
25 25 26 29 32 34 32 30 30 31 32 33 33 31 29 28 28 29 30 31 30 30 32 32 31 32 33 34 35 35 33 32 31 31 30 29 27 26 26 25 24 23
25 25 26 26 29 32 32 31 31 31 31 32 31 30 29 28 27 27 30 31 29 28 29 29 30 31 32 34 35 34 33 32 32 31 30 28 28 27 27 25 24 23
25 25 25 25 26 29 32 32 32 31 31 31 30 30 30 28 25 26 28 31 32 31 29 29 29 30 32 35 36 35 33 32 32 31 30 29 28 28 27 25 25 24
26 25 25 25 25 27 31 33 32 32 32 32 32 33 33 30 26 26 28 30 33 33 30 28 29 30 33 35 35 34 33 32 32 32 31 31 30 29 28 27 26 25
27 25 24 24 25 26 29 32 33 33 33 33 33 33 32 31 28 27 28 29 31 32 30 28 29 30 32 33 34 33 33 33 33 33 32 31 31 30 29 27 26 25
28 26 24 24 25 25 26 30 32 33 33 33 33 32 32 32 31 30 30 29 28 29 29 28 28 29 31 34 34 34 33 33 32 32 32 31 30 29 28 28 27 26
28 26 25 25 25 25 25 27 30 32 32 32 32 31 30 30 30 29 30 31 30 29 29 29 29 30 32 35 35 34 33 32 32 31 31 30 29 28 28 27 27 26
29 27 26 25 25 25 25 25 28 30 31 31 31 31 29 27 27 27 29 31 32 32 31 30 30 31 33 35 35 34 33 32 31 30 30 29 29 28 28 28 27 25
29 27 26 25 24 24 25 26 27 29 30 30 30 29 28 28 28 28 28 29 31 32 32 30 29 31 33 35 35 34 33 32 31 30 30 29 28 28 27 27 25 24
29 26 25 25 24 23 24 25 26 27 28 29 28 26 25 26 27 28 27 26 27 30 31 30 30 31 33 35 35 34 33 32 31 30 30 28 27 26 26 26 26 25
28 25 24 23 23 23 23 24 25 26 26 25 24 23 23 22 23 24 25 24 25 27 29 29 29 30 32 35 35 35 34 33 31 30 28 27 26 26 26 27 27 25
25 23 22 22 21 21 22 22 23 24 24 24 23 22 21 20 21 21 22 23 23 24 25 27 28 29 32 34 35 35 34 32 30 29 28 27 26 26 26 27 26 25
22 20 20 19 19 19 19 19 20 21 23 23 23 22 21 21 21 21 21 21 21 21 22 23 25 27 30 32 34 35 34 31 30 29 28 27 26 25 25 25 25 27
20 19 18 18 17 16 16 16 16 18 19 20 20 20 20 20 20 20 19 18 18 18 18 19 21 24 27 30 32 33 33 30 29 28 27 26 25 24 24 25 27 30
18 18 17 16 15 14 14 14 15 15 16 17 17 17 16 15 15 15 14 14 15 16 16 17 19 20 24 27 29 30 30 29 28 27 26 25 24 25 26 28 29 31
Wind_Direction
237 235 234 231 230 229 227 226 226 229 234 238 237 237 237 234 231 234 239 245 252 248 241 236 230 226 226 227 227 227 223 222 226 226 225 223 222 223 224 227 231 231
238 236 235 232 230 229 228 227 228 231 236 236 235 237 236 231 231 235 240 249 254 245 234 231 229 224 224 226 225 222 221 223 225 224 223 222 222 223 225 228 232 232
241 238 238 236 233 230 229 229 230 232 233 232 234 236 233 231 232 235 240 246 247 241 233 231 229 226 226 226 223 222 224 224 224 223 222 221 222 224 225 229 233 233
242 240 239 238 237 233 229 228 229 229 228 230 234 234 231 233 234 233 238 241 240 238 235 233 231 226 224 224 222 224 224 223 223 223 221 221 222 225 227 230 234 235
243 240 238 237 237 236 231 228 227 225 226 232 234 230 229 233 233 231 235 236 236 237 237 236 233 226 222 222 223 223 222 221 222 222 222 222 223 226 229 232 234 234
246 240 238 236 235 236 234 231 226 223 227 233 232 229 229 230 229 230 233 234 233 236 239 238 232 225 222 224 224 222 221 222 222 222 223 223 225 228 230 232 232 231
250 243 239 236 236 236 235 233 227 222 226 231 231 232 231 226 226 229 231 232 231 232 238 241 237 231 227 226 224 222 221 223 224 224 224 225 227 229 230 231 230 229
250 245 240 237 237 235 232 231 227 223 225 229 231 233 228 222 225 229 230 231 231 231 235 240 240 237 233 229 226 223 222 224 225 225 226 227 228 229 229 229 228 228
249 246 241 236 235 233 230 228 225 223 225 228 230 230 224 221 226 230 232 233 231 230 234 239 240 238 236 234 229 225 224 225 226 226 228 228 228 228 227 228 228 228
249 246 242 237 233 232 230 225 222 223 225 228 233 230 222 221 229 231 232 235 234 231 230 235 239 239 239 237 231 226 225 227 227 227 228 228 228 228 228 229 229 227
253 249 245 240 235 232 229 225 222 223 224 227 232 230 226 228 232 232 234 237 238 235 231 233 237 239 240 237 231 226 226 228 228 228 228 227 227 228 228 227 226 222
257 253 249 245 239 234 229 225 224 224 227 229 228 229 233 236 235 233 236 239 241 240 237 237 239 239 239 236 230 227 226 227 227 227 227 227 227 227 226 224 221 218
258 255 252 249 245 239 232 226 225 225 228 230 228 229 234 236 235 235 236 237 240 242 242 240 238 238 237 233 229 227 228 227 226 226 226 226 226 225 223 221 219 217
259 256 253 250 247 242 234 228 225 224 225 226 227 230 233 235 239 243 240 238 238 239 241 240 237 236 234 230 227 227 228 228 227 227 227 225 225 223 221 220 220 218
262 257 254 250 246 241 235 229 225 224 224 225 228 231 231 231 237 244 244 241 238 235 237 239 237 234 233 231 229 229 229 229 229 228 228 227 226 223 221 221 221 219
263 258 254 249 245 241 235 229 225 224 225 226 229 233 232 228 230 239 242 242 239 237 236 236 234 233 233 233 232 232 233 232 230 230 229 229 228 225 223 221 220 220
261 257 252 246 243 241 236 229 225 224 226 227 229 234 235 231 230 235 239 241 241 239 236 234 232 231 231 232 232 233 234 234 233 233 231 229 227 226 224 222 221 224
258 254 249 244 240 238 236 231 226 224 225 227 229 234 237 235 234 236 238 238 239 239 238 235 231 230 231 232 232 233 234 234 235 235 233 230 229 227 225 223 223 227
255 251 246 242 238 236 234 230 225 223 224 226 230 236 238 236 238 242 242 239 237 237 239 237 232 230 231 232 232 232 234 234 234 234 234 233 232 229 226 224 226 232
252 248 244 241 238 234 231 227 224 223 225 229 234 239 239 236 240 246 247 244 240 239 239 238 233 229 230 232 232 232 234 234 235 236 235 234 232 229 227 227 231 237
248 245 242 240 237 233 229 226 224 224 227 232 237 241 241 239 240 244 248 248 246 244 242 238 233 228 227 230 231 231 233 234 235 236 234 232 230 229 230 232 235 240
247 243 241 238 235 232 227 224 222 223 225 230 235 240 243 243 244 246 249 250 250 248 245 240 234 228 226 228 228 228 230 232 234 234 233 231 231 231 234 236 238 243
245 242 239 236 232 229 227 224 222 222 224 227 231 236 241 244 246 249 252 253 251 248 245 240 234 228 225 226 226 226 228 230 232 234 233 233 233 234 237 239 242 250
242 238 234 232 228 226 226 224 222 222 224 228 232 236 240 244 248 252 254 253 250 246 243 239 234 229 226 226 226 227 228 229 231 233 234 233 234 236 239 243 249 256
234 229 225 222 219 219 220 221 221 221 224 229 234 239 245 250 253 255 255 253 251 248 244 237 232 230 229 228 227 228 230 230 231 233 233 233 234 237 242 249 255 260
223 218 215 211 207 207 209 211 213 214 218 225 231 238 246 251 250 249 247 246 246 246 241 234 228 228 230 230 230 230 232 233 234 234 233 233 236 241 248 255 260 265